STARLINK-1119 (44928 NORAD) Tracking and Keplerian Element Data

This shows tracking and keplerian element data for the satellite.

Feedback or suggestion? Click here.




ElementValue
Catalog44928
NameSTARLINK-1119
Epoch Orbit646
Epoch Day48.58334491
Epoch Year2020
RAAN196.9362
Inclination52.9972
Eccentricity0.0001307
Argument of Perigee68.752
Mean Anonmoly32.1836
Mean Motion15.14821863
Decay Rate0.00795222
L11 44928U 20001Q 20048.58334491 .00795222 00000-0 39526-1 0 9994
L22 44928 52.9972 196.9362 0001307 68.7520 32.1836 15.14821863 6466

Live tracking and technical data element details for STARLINK-1119 (NORAD 44928). STARLINK-1119 can be tracked NOW for your location showing map with azimuth and elevation plus other details from your city location.

Track the satellite on the map from your city or location and see movement details for azimuth, elevation, latitude, longitude, range, height, and movement on the map or in text.







IsCatalogInMostPopularTable: catalog: 44928, numindb: 9
Update: records affected: 1



GetName: 44928 STARLINK-1119

Hit Count: updated at: Tue, 18 Feb 2020 00:55:13 GMT